Andrews, TX

3:17 PM CST on December 06, 2019 (GMT -0600)
Andrews

Weather History for KE11 - October, 2019

Change the Weather History Date:

Wednesday, October 23, 2019

  Actual Average (WUND) Record (WUND)
Temperature  
Mean Temperature 66 °F -  
Max Temperature 81 °F - - (-1)
Min Temperature 50 °F - - (-1)
Growing Degree Days 16 (Base 50)    
Moisture  
Dew Point 31 °F    
Average Humidity 32    
Maximum Humidity 59    
Minimum Humidity 12    
Precipitation  
Precipitation 0.03 in - - ()
Sea Level Pressure  
Sea Level Pressure 29.98 in    
Wind  
Wind Speed 8 mph ()    
Max Wind Speed 14 mph    
Max Gust Speed 18 mph    
Visibility 10.0 miles    
Events      
Averages and records for this station are not official NWS values.
T = Trace of Precipitation, MM = Missing Value Source: Averaged Metar Reports

Daily Weather History Graph

Daily Weather History Graph

Search for Another Location

Airport or City:

Astronomy

Oct. 23, 2019 Rise Set
Actual Time 7:59 AM CDT 7:08 PM CDT
Civil Twilight 7:34 AM CDT 7:33 PM CDT
Nautical Twilight 7:06 AM CDT 8:02 PM CDT
Astronomical Twilight 6:37 AM CDT 8:30 PM CDT
Moon 2:45 AM CDT (10/23) 4:38 PM CDT (10/23)
Length of Visible Light 11h 58m
Length of Day
11h 08m
Waning Crescent, 26% of the Moon is Illuminated
Oct 23
Waning Crescent
Oct 27
New
Nov 4
First Quarter
Nov 12
Full
Nov 19
Last Quarter

Hourly Weather History & Observations

Time (CDT) Temp. Dew Point Humidity Pressure Visibility Wind Dir Wind Speed Gust Speed Precip Events Conditions
12:15 AM 59.2 °F 24.4 °F 26% 30.07 in 10.0 mi SSW 13.8 mph 18.4 mph N/A   Clear
12:35 AM 58.3 °F 27.5 °F 31% 30.05 in 10.0 mi SW 9.2 mph - N/A   Clear
12:55 AM 57.2 °F 28.9 °F 34% 30.05 in 10.0 mi SSW 9.2 mph - N/A   Clear
1:15 AM 57.2 °F 31.1 °F 37% 30.05 in 10.0 mi SSW 8.1 mph - N/A   Clear
1:35 AM 57.2 °F 32.0 °F 38% 30.04 in 10.0 mi SSW 8.1 mph - N/A   Clear
1:55 AM 56.8 °F 32.0 °F 39% 30.03 in 10.0 mi SSW 9.2 mph - N/A   Clear
2:15 AM 55.4 °F 32.0 °F 41% 30.03 in 10.0 mi SSW 9.2 mph - N/A   Clear
2:35 AM 56.7 °F 31.5 °F 38% 30.03 in 10.0 mi SSW 10.4 mph - N/A   Clear
2:55 AM 56.3 °F 31.1 °F 38% 30.03 in 10.0 mi SSW 10.4 mph - N/A   Clear
3:15 AM 55.4 °F 31.3 °F 40% 30.02 in 10.0 mi SSW 9.2 mph - N/A   Clear
3:35 AM 54.7 °F 31.3 °F 41% 30.02 in 10.0 mi SSW 8.1 mph - N/A   Clear
3:55 AM 54.5 °F 31.3 °F 41% 30.01 in 10.0 mi SSW 8.1 mph - N/A   Clear
4:15 AM 54.0 °F 31.3 °F 42% 30.00 in 10.0 mi SSW 9.2 mph - N/A   Clear
4:35 AM 53.8 °F 31.1 °F 42% 30.00 in 10.0 mi SSW 10.4 mph - N/A   Clear
4:55 AM 53.4 °F 31.3 °F 43% 29.99 in 10.0 mi SSW 10.4 mph - N/A   Clear
5:15 AM 52.9 °F 31.5 °F 44% 29.99 in 10.0 mi SW 9.2 mph - N/A   Clear
5:35 AM 51.8 °F 31.6 °F 46% 29.99 in 10.0 mi SW 10.4 mph - N/A   Clear
5:55 AM 51.6 °F 31.8 °F 47% 29.99 in 10.0 mi SSW 9.2 mph - N/A   Clear
6:15 AM 51.8 °F 32.0 °F 47% 29.99 in 10.0 mi SSW 10.4 mph - N/A   Clear
6:35 AM 51.4 °F 32.0 °F 47% 29.99 in 10.0 mi SSW 9.2 mph - N/A   Clear
6:55 AM 51.4 °F 32.0 °F 47% 29.99 in 10.0 mi SW 10.4 mph - N/A   Clear
7:15 AM 51.1 °F 32.0 °F 48% 30.00 in 10.0 mi SW 9.2 mph - N/A   Clear
7:35 AM 50.0 °F 32.0 °F 50% 30.00 in 10.0 mi SW 10.4 mph - N/A   Clear
7:55 AM 50.0 °F 32.0 °F 50% 30.00 in 10.0 mi SW 9.2 mph - N/A   Clear
8:15 AM 50.5 °F 32.0 °F 49% 30.00 in 10.0 mi SSW 10.4 mph - N/A   Clear
8:35 AM 51.8 °F 32.0 °F 47% 30.00 in 10.0 mi SSW 10.4 mph - N/A   Clear
8:55 AM 53.6 °F 32.5 °F 45% 30.01 in 10.0 mi SSW 13.8 mph 17.3 mph N/A   Clear
9:15 AM 55.0 °F 33.4 °F 44% 30.01 in 10.0 mi SSW 12.7 mph 18.4 mph N/A   Clear
9:35 AM 57.7 °F 34.2 °F 41% 30.02 in 10.0 mi SSW 11.5 mph - N/A   Clear
9:55 AM 60.4 °F 34.7 °F 38% 30.03 in 10.0 mi SSW 9.2 mph - N/A   Clear
10:15 AM 63.0 °F 34.5 °F 35% 30.03 in 10.0 mi SW 10.4 mph - N/A   Clear
10:35 AM 65.7 °F 34.7 °F 32% 30.03 in 10.0 mi SW 10.4 mph - N/A   Clear
10:55 AM 67.6 °F 34.2 °F 29% 30.03 in 10.0 mi SW 11.5 mph - N/A   Clear
11:15 AM 70.5 °F 33.4 °F 26% 30.03 in 10.0 mi WSW 9.2 mph - N/A   Clear
11:35 AM 72.0 °F 32.4 °F 23% 30.02 in 10.0 mi SW 8.1 mph - N/A   Clear
11:55 AM 74.1 °F 31.5 °F 21% 30.02 in 10.0 mi WSW 9.2 mph - N/A   Clear
12:15 PM 76.5 °F 30.0 °F 18% 30.02 in 10.0 mi West 6.9 mph - N/A   Clear
12:35 PM 77.4 °F 27.9 °F 16% 30.01 in 10.0 mi WSW 6.9 mph - N/A   Clear
12:55 PM 78.3 °F 25.5 °F 14% 30.00 in 10.0 mi WSW 8.1 mph - N/A   Clear
1:15 PM - - N/A% - - North - - N/A   Unknown
1:35 PM 79.3 °F 24.8 °F 13% 29.97 in 10.0 mi WSW 9.2 mph - 0.03 in   Clear
1:55 PM 79.7 °F 25.0 °F 13% 29.96 in 10.0 mi West 5.8 mph - 0.03 in   Clear
2:15 PM 80.6 °F 26.4 °F 14% 29.95 in 10.0 mi NW 4.6 mph - N/A   Clear
2:35 PM 80.6 °F 25.5 °F 13% 29.94 in 10.0 mi SW 5.8 mph - N/A   Clear
2:55 PM 80.4 °F 26.4 °F 14% 29.93 in 10.0 mi West 5.8 mph - N/A   Clear
3:15 PM 80.8 °F 27.1 °F 14% 29.92 in 10.0 mi Calm Calm - N/A   Clear
3:35 PM 81.9 °F 27.3 °F 14% 29.91 in 10.0 mi SSW 6.9 mph - N/A   Clear
3:55 PM 81.5 °F 26.6 °F 13% 29.91 in 10.0 mi WSW 5.8 mph - N/A   Clear
4:15 PM 81.7 °F 26.6 °F 13% 29.91 in 10.0 mi West 5.8 mph - N/A   Clear
4:35 PM 81.7 °F 24.8 °F 12% 29.91 in 10.0 mi SSW 9.2 mph - N/A   Clear
4:55 PM 81.5 °F 25.2 °F 13% 29.91 in 10.0 mi West 5.8 mph - N/A   Clear
5:15 PM 81.1 °F 24.3 °F 12% 29.90 in 10.0 mi WSW 6.9 mph - N/A   Clear
5:35 PM 80.6 °F 24.4 °F 13% 29.90 in 10.0 mi WSW 8.1 mph - N/A   Clear
5:55 PM 79.7 °F 24.1 °F 13% 29.90 in 10.0 mi WSW 5.8 mph - N/A   Clear
6:15 PM 79.0 °F 25.3 °F 14% 29.90 in 10.0 mi SW 5.8 mph - N/A   Clear
6:35 PM 77.5 °F 25.5 °F 15% 29.90 in 10.0 mi SW 6.9 mph - N/A   Clear
6:55 PM 74.5 °F 27.5 °F 18% 29.90 in 10.0 mi WSW 3.5 mph - N/A   Clear
7:15 PM 73.8 °F 28.6 °F 19% 29.91 in 10.0 mi Calm Calm - N/A   Clear
7:35 PM 68.9 °F 30.6 °F 24% 29.91 in 10.0 mi WSW 3.5 mph - N/A   Clear
7:55 PM 69.4 °F 29.5 °F 23% 29.92 in 10.0 mi SW 4.6 mph - N/A   Clear
8:15 PM 63.9 °F 33.6 °F 32% 29.92 in 10.0 mi Calm Calm - N/A   Clear
8:35 PM 62.8 °F 34.9 °F 35% 29.93 in 10.0 mi SW 3.5 mph - N/A   Clear
8:55 PM 62.8 °F 31.3 °F 31% 29.93 in 10.0 mi Calm Calm - N/A   Clear
9:15 PM 60.8 °F 34.0 °F 37% 29.93 in 10.0 mi Calm Calm - N/A   Clear
9:35 PM 60.3 °F 36.3 °F 41% 29.93 in 10.0 mi Calm Calm - N/A   Clear
9:55 PM 59.7 °F 33.1 °F 37% 29.94 in 10.0 mi Calm Calm - N/A   Clear
10:15 PM 57.9 °F 29.8 °F 34% 29.95 in 10.0 mi South 6.9 mph - N/A   Clear
10:35 PM 63.0 °F 39.2 °F 42% 29.96 in 10.0 mi South 9.2 mph - N/A   Clear
10:55 PM 65.8 °F 47.3 °F 51% 29.96 in 10.0 mi SSW 8.1 mph - N/A   Clear
11:15 PM 65.1 °F 48.6 °F 55% 29.96 in 10.0 mi South 5.8 mph - N/A   Clear
11:35 PM 64.4 °F 49.1 °F 58% 29.96 in 10.0 mi SSW 5.8 mph - N/A   Clear
11:55 PM 63.5 °F 49.1 °F 59% 29.95 in 10.0 mi South 6.9 mph - N/A   Clear